Time,TemperatureF,DewpointF,PressureIn,WindDirection,WindDirectionDegrees,WindSpeedMPH,WindSpeedGustMPH,Humidity,HourlyPrecipIn,Conditions,Clouds,dailyrainin,SoftwareType,DateUTC
2013-02-20 11:32:00,36.0,2.0,29.91,NNW,327,5.0,23.0,23,0.00,,,0.00,,2013-02-20 16:32:00,
2013-02-20 11:42:00,38.0,4.0,29.92,WSW,248,1.0,14.0,23,0.00,,,0.00,,2013-02-20 16:42:00,
2013-02-20 11:52:00,38.0,4.0,29.92,WSW,248,1.0,14.0,23,0.00,,,0.00,,2013-02-20 16:52:00,
2013-02-20 12:01:00,38.0,2.0,29.93,NW,312,9.0,20.0,21,0.00,,,0.00,,2013-02-20 17:01:00,
2013-02-20 12:11:00,39.0,3.0,29.93,NW,326,2.0,23.0,22,0.00,,,0.00,,2013-02-20 17:11:00,
2013-02-20 12:21:00,39.0,3.0,29.93,NW,326,2.0,23.0,22,0.00,,,0.00,,2013-02-20 17:21:00,
2013-02-20 12:32:00,40.0,3.0,29.93,NNW,341,3.0,15.0,21,0.00,,,0.00,,2013-02-20 17:32:00,
2013-02-20 12:42:00,40.0,3.0,29.93,NNW,341,3.0,15.0,21,0.00,,,0.00,,2013-02-20 17:42:00,
2013-02-20 12:52:00,41.0,5.0,29.94,SSW,207,4.0,10.0,22,0.00,,,0.00,,2013-02-20 17:52:00,
2013-02-20 13:02:00,40.0,5.0,29.93,NNE,32,5.0,21.0,23,0.00,,,0.00,,2013-02-20 18:02:00,
2013-02-20 13:11:00,40.0,5.0,29.93,NNE,32,5.0,21.0,23,0.00,,,0.00,,2013-02-20 18:11:00,
2013-02-20 13:22:00,39.0,5.0,29.94,WNW,287,4.0,18.0,24,0.00,,,0.00,,2013-02-20 18:22:00,
2013-02-20 13:32:00,39.0,5.0,29.94,NW,317,9.0,21.0,24,0.00,,,0.00,,2013-02-20 18:32:00,
2013-02-20 13:42:00,39.0,5.0,29.94,NW,317,9.0,21.0,24,0.00,,,0.00,,2013-02-20 18:42:00,
2013-02-20 13:52:00,39.0,7.0,29.94,West,273,2.0,16.0,26,0.00,,,0.00,,2013-02-20 18:52:00,
2013-02-20 14:01:00,42.0,9.0,29.93,NE,53,2.0,7.0,25,0.00,,,0.00,,2013-02-20 19:01:00,
2013-02-20 14:11:00,42.0,9.0,29.93,NE,53,2.0,7.0,25,0.00,,,0.00,,2013-02-20 19:11:00,
2013-02-20 14:21:00,41.0,8.0,29.93,WNW,284,7.0,20.0,25,0.00,,,0.00,,2013-02-20 19:21:00,
2013-02-20 14:31:00,40.0,8.0,29.93,West,271,1.0,14.0,26,0.00,,,0.00,,2013-02-20 19:31:00,
2013-02-20 14:41:00,40.0,8.0,29.93,West,271,1.0,14.0,26,0.00,,,0.00,,2013-02-20 19:41:00,
2013-02-20 14:52:00,41.0,8.0,29.93,NNW,336,4.0,15.0,25,0.00,,,0.00,,2013-02-20 19:52:00,
2013-02-20 15:01:00,41.0,9.0,29.93,NW,325,4.0,21.0,26,0.00,,,0.00,,2013-02-20 20:01:00,
2013-02-20 15:11:00,40.0,8.0,29.93,WNW,297,11.0,21.0,26,0.00,,,0.00,,2013-02-20 20:11:00,
2013-02-20 15:21:00,40.0,8.0,29.93,WNW,297,11.0,21.0,26,0.00,,,0.00,,2013-02-20 20:21:00,
2013-02-20 15:31:00,39.0,7.0,29.94,WNW,283,11.0,22.0,26,0.00,,,0.00,,2013-02-20 20:31:00,
2013-02-20 15:41:00,39.0,7.0,29.94,WNW,298,8.0,18.0,26,0.00,,,0.00,,2013-02-20 20:41:00,
2013-02-20 15:52:00,39.0,7.0,29.94,WNW,298,8.0,18.0,26,0.00,,,0.00,,2013-02-20 20:52:00,
2013-02-20 16:01:00,39.0,5.0,29.94,WNW,290,5.0,16.0,24,0.00,,,0.00,,2013-02-20 21:01:00,
2013-02-20 16:11:00,39.0,6.0,29.95,West,259,8.0,21.0,25,0.00,,,0.00,,2013-02-20 21:11:00,
2013-02-20 16:21:00,39.0,6.0,29.95,West,259,8.0,21.0,25,0.00,,,0.00,,2013-02-20 21:21:00,
2013-02-20 16:31:00,39.0,6.0,29.94,WNW,299,8.0,18.0,25,0.00,,,0.00,,2013-02-20 21:31:00,
2013-02-20 16:42:00,39.0,6.0,29.94,WNW,299,8.0,18.0,25,0.00,,,0.00,,2013-02-20 21:42:00,
2013-02-20 16:52:00,38.0,6.0,29.95,WNW,300,7.0,15.0,26,0.00,,,0.00,,2013-02-20 21:52:00,
2013-02-20 17:01:00,38.0,6.0,29.96,WNW,300,8.0,17.0,26,0.00,,,0.00,,2013-02-20 22:01:00,
2013-02-20 17:11:00,37.0,5.0,29.96,NW,315,9.0,19.0,26,0.00,,,0.00,,2013-02-20 22:11:00,
2013-02-20 17:21:00,37.0,5.0,29.96,NW,315,9.0,19.0,26,0.00,,,0.00,,2013-02-20 22:21:00,
2013-02-20 17:31:00,35.0,5.0,29.97,NW,308,11.0,25.0,28,0.00,,,0.00,,2013-02-20 22:31:00,
2013-02-20 17:42:00,35.0,5.0,29.97,NW,308,11.0,25.0,28,0.00,,,0.00,,2013-02-20 22:42:00,
2013-02-20 17:52:00,34.0,6.0,29.98,WNW,290,5.0,24.0,30,0.00,,,0.00,,2013-02-20 22:52:00,
2013-02-20 18:01:00,34.0,7.0,29.98,WNW,297,5.0,13.0,32,0.00,,,0.00,,2013-02-20 23:01:00,
2013-02-20 18:12:00,33.0,7.0,29.98,NW,313,4.0,16.0,33,0.00,,,0.00,,2013-02-20 23:12:00,
2013-02-20 18:22:00,33.0,7.0,29.98,NW,313,4.0,16.0,33,0.00,,,0.00,,2013-02-20 23:22:00,
2013-02-20 18:32:00,33.0,8.0,29.99,WNW,298,7.0,14.0,34,0.00,,,0.00,,2013-02-20 23:32:00,
2013-02-20 18:42:00,33.0,8.0,29.99,WNW,298,7.0,14.0,34,0.00,,,0.00,,2013-02-20 23:42:00,
2013-02-20 18:53:00,32.0,7.0,29.99,NNW,329,3.0,11.0,34,0.00,,,0.00,,2013-02-20 23:53:00,
2013-02-20 19:03:00,32.0,8.0,29.99,NW,312,4.0,15.0,36,0.00,,,0.00,,2013-02-21 00:03:00,
2013-02-20 19:11:00,32.0,8.0,29.99,NW,312,4.0,15.0,36,0.00,,,0.00,,2013-02-21 00:11:00,
2013-02-20 19:22:00,32.0,9.0,30.00,WSW,254,5.0,12.0,38,0.00,,,0.00,,2013-02-21 00:22:00,
2013-02-20 19:32:00,31.0,10.0,30.00,NNW,337,3.0,6.0,40,0.00,,,0.00,,2013-02-21 00:32:00,
2013-02-20 19:42:00,31.0,10.0,30.00,NNW,337,3.0,6.0,40,0.00,,,0.00,,2013-02-21 00:42:00,
2013-02-20 19:52:00,31.0,10.0,30.00,NW,313,3.0,12.0,41,0.00,,,0.00,,2013-02-21 00:52:00,
2013-02-20 20:01:00,30.0,10.0,30.00,WNW,300,2.0,9.0,42,0.00,,,0.00,,2013-02-21 01:01:00,
2013-02-20 20:11:00,30.0,10.0,30.00,WNW,300,2.0,9.0,42,0.00,,,0.00,,2013-02-21 01:11:00,
2013-02-20 20:21:00,30.0,10.0,30.01,NW,326,2.0,17.0,43,0.00,,,0.00,,2013-02-21 01:21:00,
2013-02-20 20:32:00,30.0,10.0,30.01,West,275,7.0,14.0,43,0.00,,,0.00,,2013-02-21 01:32:00,
2013-02-20 20:42:00,30.0,10.0,30.01,West,275,7.0,14.0,43,0.00,,,0.00,,2013-02-21 01:42:00,
2013-02-20 20:52:00,30.0,11.0,30.00,NW,321,8.0,17.0,44,0.00,,,0.00,,2013-02-21 01:52:00,
2013-02-20 21:01:00,30.0,11.0,30.00,WNW,287,6.0,14.0,45,0.00,,,0.00,,2013-02-21 02:01:00,
2013-02-20 21:11:00,30.0,11.0,30.00,WNW,287,6.0,14.0,45,0.00,,,0.00,,2013-02-21 02:11:00,
2013-02-20 21:21:00,29.0,10.0,30.00,WNW,303,6.0,14.0,45,0.00,,,0.00,,2013-02-21 02:21:00,
2013-02-20 21:32:00,29.0,10.0,30.00,WNW,295,5.0,10.0,45,0.00,,,0.00,,2013-02-21 02:32:00,
2013-02-20 21:42:00,29.0,10.0,30.00,WNW,295,5.0,10.0,45,0.00,,,0.00,,2013-02-21 02:42:00,
2013-02-20 21:52:00,29.0,10.0,30.00,WNW,295,5.0,10.0,45,0.00,,,0.00,,2013-02-21 02:52:00,
2013-02-20 22:02:00,29.0,11.0,30.01,NNW,329,5.0,15.0,46,0.00,,,0.00,,2013-02-21 03:02:00,
2013-02-20 22:12:00,29.0,11.0,30.01,NNW,329,5.0,15.0,46,0.00,,,0.00,,2013-02-21 03:12:00,
2013-02-20 22:21:00,29.0,11.0,30.01,WNW,299,6.0,13.0,46,0.00,,,0.00,,2013-02-21 03:21:00,
2013-02-20 22:32:00,29.0,11.0,30.01,WNW,299,6.0,13.0,46,0.00,,,0.00,,2013-02-21 03:32:00,
2013-02-20 22:42:00,29.0,11.0,30.01,WNW,299,6.0,13.0,46,0.00,,,0.00,,2013-02-21 03:42:00,
2013-02-20 22:52:00,28.0,10.0,30.00,NNW,333,3.0,9.0,46,0.00,,,0.00,,2013-02-21 03:52:00,
2013-02-20 23:01:00,28.0,10.0,30.00,NW,306,3.0,6.0,47,0.00,,,0.00,,2013-02-21 04:01:00,
2013-02-20 23:11:00,28.0,10.0,30.00,NW,306,3.0,6.0,47,0.00,,,0.00,,2013-02-21 04:11:00,
2013-02-20 23:22:00,28.0,10.0,30.00,NW,313,0.0,10.0,46,0.00,,,0.00,,2013-02-21 04:22:00,
2013-02-20 23:32:00,28.0,10.0,30.00,NNW,344,3.0,8.0,46,0.00,,,0.00,,2013-02-21 04:32:00,
2013-02-20 23:42:00,28.0,10.0,30.00,NNW,344,3.0,8.0,46,0.00,,,0.00,,2013-02-21 04:42:00,
2013-02-20 23:52:00,28.0,10.0,29.99,North,355,1.0,6.0,46,0.00,,,0.00,,2013-02-21 04:52:00,